User: anonymous   Login
Location: Mississauga
(43.5802°N, 79.6166°W)
Time: 18:06:59
(UTC-04:00)
Language:

Cosmos 1437 Rocket - Orbit

View from above orbital plane
View from above orbital plane
View from above satellite
View from above satellite

Ground track
Ground track

The orbit data is extracted from the following two-line orbital elements,

1 13771U 83003B   16149.49662061  .00000997  00000-0  59768-4 0  9992
2 13771  81.1460  86.4208 0042818 196.2283 163.7575 15.09295380815755
Epoch (UTC): 28 May 2016 11:55:08
Eccentricity: 0.0042818
inclination: 81.1460°
perigee height: 509 km
apogee height: 568 km
right ascension of ascending node: 86.4208°
argument of perigee: 196.2283°
revolutions per day: 15.09295380
mean anomaly at epoch: 163.7575°
orbit number at epoch: 81575

The dashed part of the orbit path shows where the satellite is in the earth's shadow,  

DLR